Location: Unspecified
(0.0000°N, 0.0000°E)
Time: 17:59:31
(UTC+00:00)

STARLINK-35224 - Visible Passes

Search period start: 14 January 2026 00:00
Search period end: 24 January 2026 00:00
Orbit: 548 x 551 km, 97.6° (Epoch: 14 January)

Date Brightness Start Highest point End Pass type
(mag) Time Alt. Az. Time Alt. Az. Time Alt. Az.
14 Jan 5.2 20:06:48 13° S 20:06:48 13° S 20:07:16 10° S visible
15 Jan 5.2 20:02:17 12° SSE 20:02:17 12° SSE 20:02:42 10° S visible
16 Jan 5.1 19:57:46 12° SSE 19:57:46 12° SSE 19:58:06 10° SSE visible
17 Jan 5.2 19:53:14 11° SSE 19:53:14 11° SSE 19:53:28 10° SSE visible
18 Jan 5.2 19:48:43 10° SSE 19:48:43 10° SSE 19:48:48 10° SSE visible
